Regional Weather Roundup
Issued by NWS

Home | Current Version | Previous Version | Graphics & Text | Print | Product List | Glossary Off
Versions: 1 2 3 4 5 6 7 8 9 10 11 12 13 14 15 16 17 18 19 20 21 22 23 24 25 26 27 28 29 30 31 32 33 34 35 36 37 38 39 40 41 42 43 44 45 46 47 48 49 50

000
ASUS43 KDTX 250101
RWRMI
MICHIGAN HOURLY REGIONAL WEATHER ROUNDUP
NATIONAL WEATHER SERVICE DETROIT/PONTIAC MI
900 PM EDT FRI OCT 24 2014

NOTE: "FAIR" INDICATES FEW OR NO CLOUDS BELOW 12,000 FEET WITH NO
SIGNIFICANT WEATHER AND/OR OBSTRUCTION TO VISIBILITY.

MIZ047>049-052>055-059>063-066>070-074>076-081>083-250200-
SOUTHEAST LOWER MICHIGAN

CITY           SKY/WX    TMP DP  RH WIND       PRES   REMARKS
ADRIAN         PTCLDY    50  45  83 CALM      30.00S
ALMA           PTCLDY    46  43  91 CALM      29.96F FOG
ANN ARBOR      PTCLDY    46  41  82 CALM      29.98F
BAD AXE        MOCLDY    44  43  97 CALM      29.95S
CARO           MOCLDY    48  47  96 CALM      29.94F
DETROIT CITY   CLOUDY    58  45  62 W8        29.99S
DETROIT        CLOUDY    56  46  69 SW10      30.00S
FLINT          MOCLDY    57  48  72 SW6       29.97S
GROSSE ILE     MOCLDY    55  46  71 SW3       29.98S
HILLSDALE      PTCLDY    47  47  98 S3        29.99S FOG
HOWELL         MOCLDY    54  46  75 S5        29.97F

CITY           SKY/WX    TMP DP  RH WIND       PRES   REMARKS
JACKSON        PTCLDY    48  45  89 CALM      29.98S
LAMBERTVILLE   PTCLDY    50  45  81 CALM      30.00S
LANSING        CLEAR     50  45  83 CALM      29.98F
LAPEER         CLOUDY    52  46  82 S5        29.96S
MASON          CLEAR     50  45  82 CALM      29.98S
MONROE         PTCLDY    48  45  87 CALM      29.98S
MT. CLEMENS    CLOUDY    55  46  69 SW8       29.95S
PONTIAC        MOCLDY    55  45  68 SW8       29.96F
PORT HOPE        N/A     50  47  89 CALM      29.93F
PORT HURON     CLOUDY    50  45  81 CALM      29.97S
TRI CITIES     PTCLDY    54  48  80 W6        29.96F
TROY           CLOUDY    57  44  62 CALM      29.99F
SAGINAW HB     PTCLDY    54  48  82 SW6       29.95S
$$
MIZ043>046-050>051-056>058-064>065-071>073-077>080-250200-
SOUTHWEST LOWER MICHIGAN

CITY           SKY/WX    TMP DP  RH WIND       PRES   REMARKS
BATTLE CREEK   CLEAR     49  44  83 CALM      29.98F
BENTON HARBOR  MOCLDY    47  45  93 CALM      29.97S FOG
BIG RAPIDS     CLOUDY    52  51  99 S3        29.95F
COLDWATER      PTCLDY    49  48  94 CALM      29.98S
FREMONT        CLOUDY    50  48  94 SW6       29.96F
HOLLAND        CLEAR     49  46  90 CALM      29.97F FOG
GRAND RAPIDS   CLEAR     51  47  86 SW3       29.97F
IONIA          FAIR      49  47  92 W6        29.96F
KALAMAZOO      CLEAR     49  46  90 CALM      29.99S
LUDINGTON      MOCLDY    49  47  93 S5        29.95S
MARSHALL       CLEAR     46  45  98 CALM      29.97F FOG
MOUNT PLEASANT CLOUDY    53  48  83 W5        29.96S
MUSKEGON       MOCLDY    51  47  86 CALM      29.97F FOG
SOUTH HAVEN    FAIR      48  46  94 CALM      29.97S FOG
$$
MIZ016>042-250200-
NORTHERN LOWER MICHIGAN

CITY           SKY/WX    TMP DP  RH WIND       PRES   REMARKS
ALPENA         CLOUDY    52  47  83 S5        29.92F
BEAVER ISLAND  CLOUDY    50  48  93 SW10G18   29.88F
BELLAIRE       CLOUDY    51  47  86 CALM      29.93S
CADILLAC       CLOUDY    49  47  93 SW8       29.93F
CHARLEVOIX     CLOUDY    51  48  90 S3        29.93F
FRANKFORT      CLOUDY    50  46  85 CALM      29.92F
GAYLORD        CLOUDY    49  46  90 SW8       29.92F
GRAYLING       MOCLDY    49  48  97 CALM      29.94S
HARBOR SPRINGS CLOUDY    53  47  82 SW7       29.91S
HOUGHTON LAKE  CLOUDY    51  47  86 SW7       29.94F
MANISTEE       CLOUDY    50  45  81 S5        29.94F
OSCODA         CLOUDY    52  49  89 SW3       29.93S
PELLSTON       CLOUDY    52  47  83 SW5       29.90F
ROGERS CITY    MOCLDY    48  48 100 CALM      29.92F
TRAVERSE CITY  CLOUDY    52  46  80 VRB6      29.91F
$$
MIZ007>008-015-250200-
EASTERN UPPER MICHIGAN

CITY           SKY/WX    TMP DP  RH WIND       PRES   REMARKS
KINROSS        CLOUDY    50  48  93 SW9       29.88S
MACKINAC ISLAN CLOUDY    51  49  93 SW12      29.89F
NEWBERRY       CLOUDY    47  46  95 SW12G20   29.84F FOG
S. S. MARIE    CLOUDY    50  45  83 SW7       29.86F
MUNISING         N/A     50  46  86 S14       29.80F
$$
MIZ004>006-011>014-085-250200-
CENTRAL UPPER MICHIGAN

CITY           SKY/WX    TMP DP  RH WIND       PRES   REMARKS
MANISTIQUE     CLOUDY    49  48  97 S12G20    29.85F FOG
ESCANABA       CLOUDY    52  48  87 S13       29.85F
MENOMINEE      PTCLDY    50  46  87 SW5       29.87S
SAWYER-GWINN   CLEAR     50  46  87 S12       29.80F
$$
MIZ001>003-009>011-084-250200-
WESTERN UPPER MICHIGAN

CITY           SKY/WX    TMP DP  RH WIND       PRES   REMARKS
IRON MOUNTAIN  CLOUDY    52  47  83 S8        29.83F
HOUGHTON       PTCLDY    56  42  59 S6        29.72F
COPPER HARBOR    N/A     56  43  61 W9        29.69F
IRONWOOD       PTCLDY    57  52  82 SW12G20   29.75F
$$

ABBREVIATIONS USED IN REMARKS
   TC - TEMPERATURE IN CELSIUS
  WCI - WIND CHILL INDEX
   HX - HEAT INDEX
  VSB - VISIBILITY




USA.gov is the U.S. government's official web portal to all federal, state and local government web resources and services.